[[{"header":{"parameterUnit":"m.s-1","parameterCategory":1,"la1":30.2991,"la2":30.254,"lo1":-89.0895,"lo2":-89.0444,"dy":0.0017,"dx":0.0017,"nx":28,"ny":28,"refTime":"2024-11-29T09:00:00:Z","depth":0,"parameterNumber":2,"parameterNumberName":"U-component_of_WINDS"},"data":[0,0,0,0,0,0,0,0,0,0,0,0,0,0,0,0,0,0,0,0,0,0,0,0,0,0,0,0,0,0,0,0,0,0,0,0,0,0,0,0,0,0,0,0,0,0,0,0,0,0,0,0,0,0,0,0,0,0,-1.9681,-1.9681,0,-1.974,-1.9741,-1.9741,-1.9734,-1.9733,-1.9732,-1.9731,-1.9789,-1.9791,-1.9794,0,0,0,0,0,0,0,0,0,0,0,0,0,-1.9559,-1.9561,-1.9681,-1.9682,-1.9682,-1.974,-1.9741,-1.9742,-1.9734,-1.9733,-1.9732,-1.9731,-1.9788,-1.9791,-1.9794,0,0,0,0,0,0,0,0,0,0,0,0,0,-1.9614,-1.9562,-1.9681,-1.9686,-1.9687,-1.974,-1.9741,-1.9742,-1.9734,-1.9733,-1.9731,-1.973,-1.9787,-1.9791,-1.9794,-1.9845,0,0,-1.9805,-1.9807,0,0,0,0,0,0,0,0,-1.9611,-1.9618,-1.9684,-1.9685,-1.9687,-1.9728,-1.9719,-1.9776,-1.9735,-1.9716,-1.9731,-1.9729,-1.977,-1.9775,-1.9789,-1.9848,-1.9851,-1.9806,-1.9808,-1.9809,-1.9811,0,0,0,0,0,0,0,-1.9607,-1.9616,-1.9704,-1.9685,-1.9687,-1.9684,-1.969,-1.973,-1.975,-1.9718,-1.9717,-1.9725,-1.977,-1.9785,-1.979,-1.9851,-1.9806,-1.9809,-1.9811,-1.9813,-1.9955,-1.9956,0,0,0,0,0,0,-1.9602,-1.9613,-1.9702,-1.9706,-1.9645,-1.9687,-1.9694,-1.9716,-1.975,-1.9753,-1.9726,-1.9724,-1.978,-1.9786,-1.9792,-1.9853,-1.9809,-1.9813,-1.9815,-1.9953,-1.9955,-1.9957,0,0,0,0,0,0,-1.96,-1.961,-1.97,-1.9659,-1.967,-1.9691,-1.9716,-1.9718,-1.9733,-1.9756,-1.9759,-1.9738,-1.9779,-1.9787,-1.9832,-1.9855,-1.9814,-1.9818,-1.9951,-1.9954,-1.9956,-1.9976,0,0,0,0,0,0,-1.9596,-1.961,-1.963,-1.966,-1.9673,-1.974,-1.9717,-1.972,-1.974,-1.9738,-1.9768,-1.9771,-1.9778,-1.9827,-1.9836,-1.9859,-1.9821,-1.9949,-1.9952,-1.9955,-1.9974,-1.9979,-1.9984,0,0,0,0,0,-1.9592,-1.9633,-1.9631,-1.9642,-1.9699,-1.9741,-1.9748,-1.9756,-1.9742,-1.9762,-1.9776,-1.977,-1.9852,-1.9831,-1.9842,-1.9867,-1.9948,-1.9951,-1.9955,-1.9972,-1.9978,-1.9984,0,0,0,0,0,0,-1.9604,-1.9637,-1.9635,-1.9687,-1.9712,-1.974,-1.9765,-1.9763,-1.9792,-1.9789,-1.9797,-1.9803,-1.9849,-1.9863,-1.984,-1.9917,-1.9898,-1.9903,-1.9907,-1.9913,-1.9918,-1.9913,-1.9824,0,0,0,0,0,-1.9613,-1.9646,-1.9672,-1.9716,-1.9728,-1.9745,-1.9764,-1.9768,-1.9793,-1.9803,-1.9821,-1.9844,-1.9875,-1.9895,-1.9925,-1.9976,-1.9982,-1.9998,-2.0004,-2.0008,-2.0012,-2.0039,-2.0046,-1.9969,-1.9968,-1.9968,0,0,-1.9631,-1.9653,-1.9673,-1.9719,-1.9738,-1.9771,-1.9753,-1.9789,-1.9813,-1.9808,-1.9852,-1.9866,-1.9893,-1.9941,-1.9963,-1.9954,-2.0035,-2.0012,-2.0015,-2.0017,-2.0043,-2.0051,-2.0057,-1.9971,-1.9971,-1.997,0,0,-1.9681,-1.9702,-1.9739,-1.9759,-1.9789,-1.98,-1.9809,-1.9838,-1.9848,-1.9892,-1.9889,-1.9917,-1.997,-1.9989,-2.0006,-2.0064,-2.0059,-2.0073,-2.0099,-2.0125,-2.0131,-2.0137,-2.0156,-2.0163,-2.0078,-2.0078,-2.0078,0,-1.9699,-1.975,-1.9759,-1.9795,-1.9814,-1.9813,-1.985,-1.9869,-1.9907,-1.992,-1.9909,-1.9976,-1.9994,-2.0046,-2.006,-2.0074,-2.0084,-2.0069,-2.013,-2.0135,-2.0141,-2.0159,-2.0166,-2.0079,-2.0079,-2.0079,-2.0079,0,-1.977,-1.9805,-1.9832,-1.9869,-1.9892,-1.9928,-1.9942,-1.9964,-1.9967,-1.9978,-2.0023,-2.0045,-2.0078,-2.0091,-2.0094,-2.0144,-2.0137,-2.0128,-2.0108,-2.0149,-2.0166,-2.0174,-2.0081,-2.0081,-2.008,-2.008,0,0,-1.9828,-1.9871,-1.988,-1.9897,-1.993,-1.9956,-1.9993,-2.0026,-2.0044,-2.0071,-2.01,-2.0145,-2.0137,-2.0156,-2.0161,-2.0184,-2.0227,-2.0173,-2.0173,-2.0181,-2.0282,-2.0287,-2.0295,-2.0225,-2.0226,-2.0227,-2.0279,0,-1.988,-1.9945,-1.9955,-2.0011,-2.0043,-2.0042,-2.0073,-2.0096,-2.0108,-2.0136,-2.0149,-2.0181,-2.0168,-2.018,-2.0203,-2.0217,-2.0247,-2.0213,-2.0251,-2.0252,-2.0242,-2.0305,-2.0311,-2.0358,-2.0286,-2.0287,-2.0288,0,-1.9949,-1.9978,-2.0038,-2.0067,-2.008,-2.0108,-2.014,-2.0167,-2.0192,-2.0199,-2.0221,-2.0223,-2.0259,-2.0239,-2.0288,-2.0265,-2.0281,-2.029,-2.0292,-2.0295,-2.0271,-2.0307,-2.0374,-2.0381,-2.0299,-2.0298,-2.0297,0,-1.9984,-2.0038,-2.008,-2.0095,-2.0129,-2.0149,-2.0164,-2.0189,-2.0208,-2.0236,-2.0248,-2.0279,-2.0296,-2.0319,-2.0329,-2.0313,-2.0377,-2.0358,-2.0383,-2.0383,-2.0395,-2.0394,-2.0464,-2.0408,-2.0408,-2.0408,-2.0408,0,-2.004,-2.0077,-2.0096,-2.0122,-2.0163,-2.0173,-2.0213,-2.0227,-2.0249,-2.0277,-2.0278,-2.0304,-2.0316,-2.0344,-2.0352,-2.0391,-2.0399,-2.0405,-2.0406,-2.0404,-2.0403,-2.0413,-2.0409,-2.041,-2.0409,-2.0409,-2.0409,0,-2.0085,-2.01,-2.0146,-2.0175,-2.0184,-2.0212,-2.0236,-2.0261,-2.0273,-2.0308,-2.0317,-2.0336,-2.0368,-2.0381,-2.0421,-2.0426,-2.0471,-2.047,-2.0462,-2.0462,-2.0486,-2.0483,-2.0563,-2.0574,-2.0513,-2.0513,-2.0514,0,-2.012,-2.0148,-2.018,-2.0199,-2.0215,-2.0246,-2.0266,-2.0277,-2.0298,-2.0329,-2.035,-2.0383,-2.0409,-2.0462,-2.0478,-2.0508,-2.0507,-2.0534,-2.0512,-2.0508,-2.0506,-2.0503,-2.0506,-2.0537,-2.0538,-2.0538,-2.0538,0,-2.0178,-2.0184,-2.0214,-2.0245,-2.027,-2.0295,-2.032,-2.0335,-2.035,-2.0373,-2.0407,-2.0428,-2.0468,-2.05,-2.0531,-2.0546,-2.0544,-2.0546,-2.0553,-2.055,-2.0543,-2.0546,-2.0471,-2.0543,-2.0543,-2.0542,-2.0542,-2.0542,-2.0218,-2.0243,-2.0269,-2.0301,-2.0321,-2.0344,-2.0369,-2.0384,-2.0413,-2.0447,-2.0452,-2.0488,-2.0512,-2.0554,-2.057,-2.0597,-2.059,-2.0601,-2.0603,-2.0605,-2.0606,-2.054,-2.0603,-2.0603,-2.0603,-2.0603,-2.0603,0,-2.0276,-2.0293,-2.0322,-2.0357,-2.0382,-2.038,-2.0407,-2.0428,-2.046,-2.0483,-2.051,-2.0548,-2.0579,-2.0598,-2.0629,-2.0647,-2.0647,-2.0655,-2.0653,-2.0656,-2.0611,-2.0602,-2.0654,-2.0654,-2.0654,-2.0654,-2.0654,-2.0654,-2.0308,-2.0349,-2.0359,-2.0409,-2.0426,-2.0461,-2.0477,-2.0497,-2.0516,-2.0559,-2.0585,-2.0598,-2.0619,-2.0652,-2.068,-2.0684,-2.0695,-2.0703,-2.0707,-2.0665,-2.0659,-2.0654,-2.0645,-2.0706,-2.0706,-2.0749,-2.0749,-2.0749]},{"header":{"parameterUnit":"m.s-1","parameterCategory":1,"la1":30.2991,"la2":30.254,"lo1":-89.0895,"lo2":-89.0444,"dy":0.0017,"dx":0.0017,"nx":28,"ny":28,"refTime":"2024-11-29T09:00:00:Z","depth":0,"parameterNumber":3,"parameterNumberName":"V-component_of_WINDS"},"data":[0,0,0,0,0,0,0,0,0,0,0,0,0,0,0,0,0,0,0,0,0,0,0,0,0,0,0,0,0,0,0,0,0,0,0,0,0,0,0,0,0,0,0,0,0,0,0,0,0,0,0,0,0,0,0,0,0,0,-1.0935,-1.0935,0,-1.096,-1.096,-1.0961,-1.0977,-1.0977,-1.0978,-1.0978,-1.1005,-1.1006,-1.1006,0,0,0,0,0,0,0,0,0,0,0,0,0,-1.0904,-1.0905,-1.0935,-1.0935,-1.0936,-1.096,-1.096,-1.0961,-1.0977,-1.0977,-1.0978,-1.0978,-1.1005,-1.1006,-1.1006,0,0,0,0,0,0,0,0,0,0,0,0,0,-1.0922,-1.0905,-1.0935,-1.0947,-1.0948,-1.096,-1.096,-1.0961,-1.0977,-1.0977,-1.0978,-1.0978,-1.1005,-1.1006,-1.1007,-1.1009,0,0,-1.1009,-1.101,0,0,0,0,0,0,0,0,-1.0921,-1.0923,-1.0945,-1.0946,-1.0948,-1.0966,-1.0959,-1.0977,-1.0977,-1.0966,-1.0978,-1.0978,-1.0992,-1.0994,-1.0998,-1.101,-1.1011,-1.101,-1.101,-1.101,-1.1011,0,0,0,0,0,0,0,-1.092,-1.0922,-1.0945,-1.0945,-1.0947,-1.0952,-1.0954,-1.0963,-1.0978,-1.0967,-1.0969,-1.0971,-1.0993,-1.0997,-1.0999,-1.1012,-1.1009,-1.101,-1.1011,-1.1011,-1.1027,-1.1027,0,0,0,0,0,0,-1.0916,-1.0921,-1.0944,-1.0946,-1.0934,-1.0952,-1.0955,-1.096,-1.0978,-1.0981,-1.0971,-1.0972,-1.0996,-1.0998,-1.1,-1.1004,-1.101,-1.1011,-1.1012,-1.1027,-1.1027,-1.1027,0,0,0,0,0,0,-1.0916,-1.0918,-1.0943,-1.0934,-1.0937,-1.0952,-1.0958,-1.096,-1.0965,-1.0981,-1.0984,-1.0973,-1.0996,-1.0999,-1.1007,-1.1005,-1.1012,-1.1013,-1.1027,-1.1027,-1.1027,-1.1012,0,0,0,0,0,0,-1.0915,-1.0918,-1.0919,-1.0934,-1.0938,-1.0948,-1.0957,-1.0961,-1.0966,-1.0967,-1.0983,-1.0986,-1.0996,-1.1005,-1.1007,-1.1007,-1.1013,-1.1028,-1.1027,-1.1027,-1.1012,-1.1011,-1.101,0,0,0,0,0,-1.0914,-1.0914,-1.0919,-1.0921,-1.0939,-1.0948,-1.0951,-1.0962,-1.0966,-1.0967,-1.0977,-1.0985,-1.1005,-1.1006,-1.1009,-1.1008,-1.1028,-1.1027,-1.1027,-1.1013,-1.1011,-1.101,0,0,0,0,0,0,-1.0899,-1.0916,-1.0921,-1.0926,-1.0936,-1.0951,-1.0953,-1.096,-1.0969,-1.097,-1.0984,-1.0988,-1.0994,-1.1002,-1.1002,-1.1011,-1.1017,-1.1018,-1.1006,-1.1004,-1.1003,-1.1001,-1.1014,0,0,0,0,0,-1.0896,-1.0902,-1.0917,-1.092,-1.0924,-1.0938,-1.0942,-1.095,-1.0961,-1.0965,-1.0976,-1.0986,-1.0995,-1.1,-1.1009,-1.1014,-1.1018,-1.1015,-1.1014,-1.1012,-1.1012,-1.1016,-1.1015,-1.1026,-1.1026,-1.1026,0,0,-1.0891,-1.0901,-1.0903,-1.0917,-1.0925,-1.0931,-1.0941,-1.0947,-1.0952,-1.0966,-1.0974,-1.0982,-1.0995,-1.1001,-1.1004,-1.1008,-1.101,-1.1012,-1.1011,-1.1012,-1.1015,-1.1014,-1.1013,-1.1026,-1.1026,-1.1026,0,0,-1.0883,-1.0892,-1.0895,-1.0903,-1.0915,-1.0924,-1.0924,-1.0939,-1.0945,-1.0952,-1.0963,-1.097,-1.0984,-1.0992,-1.0999,-1.0995,-1.1003,-1.0997,-1.099,-1.0993,-1.0993,-1.0992,-1.099,-1.099,-1.0997,-1.0997,-1.0997,0,-1.0875,-1.0884,-1.0896,-1.0901,-1.0907,-1.0919,-1.0923,-1.093,-1.0945,-1.0949,-1.0952,-1.097,-1.098,-1.0988,-1.0987,-1.0992,-1.0994,-1.0995,-1.0992,-1.0991,-1.0991,-1.0989,-1.0989,-1.0997,-1.0997,-1.0997,-1.0997,0,-1.0873,-1.0879,-1.0881,-1.0893,-1.0899,-1.0904,-1.0917,-1.0922,-1.0929,-1.0938,-1.0946,-1.0958,-1.0969,-1.0971,-1.0979,-1.0981,-1.0983,-1.0989,-1.0995,-1.0988,-1.0987,-1.0987,-1.0995,-1.0996,-1.0996,-1.0996,0,0,-1.0857,-1.0876,-1.0876,-1.0882,-1.0897,-1.0902,-1.0907,-1.0918,-1.0921,-1.0931,-1.0936,-1.0948,-1.0954,-1.0961,-1.0969,-1.0972,-1.0968,-1.0978,-1.0979,-1.0975,-1.0971,-1.0966,-1.0965,-1.0974,-1.0974,-1.0974,-1.0969,0,-1.0852,-1.0861,-1.0872,-1.0878,-1.0883,-1.0896,-1.09,-1.091,-1.0918,-1.0925,-1.0935,-1.0943,-1.095,-1.0954,-1.0957,-1.0968,-1.0967,-1.0968,-1.0979,-1.0979,-1.0974,-1.0964,-1.0959,-1.0955,-1.0969,-1.0969,-1.0969,0,-1.0847,-1.0855,-1.0861,-1.0875,-1.0878,-1.0881,-1.0892,-1.0898,-1.0909,-1.0915,-1.0923,-1.0932,-1.0939,-1.0945,-1.0955,-1.0955,-1.096,-1.0966,-1.0966,-1.0967,-1.0973,-1.0965,-1.0954,-1.0953,-1.0969,-1.0969,-1.0969,0,-1.0834,-1.0847,-1.0852,-1.0857,-1.0873,-1.0875,-1.0882,-1.0894,-1.0899,-1.0909,-1.0912,-1.0923,-1.0928,-1.0936,-1.0948,-1.0952,-1.0957,-1.0964,-1.0962,-1.0962,-1.0962,-1.0962,-1.0951,-1.0966,-1.0966,-1.0966,-1.0966,0,-1.0827,-1.083,-1.0846,-1.0849,-1.0854,-1.0866,-1.087,-1.0878,-1.0889,-1.0894,-1.0906,-1.0911,-1.0926,-1.0934,-1.0943,-1.095,-1.0952,-1.0958,-1.096,-1.0956,-1.0956,-1.0959,-1.096,-1.0966,-1.0966,-1.0966,-1.0966,0,-1.0813,-1.0824,-1.083,-1.0845,-1.0849,-1.0851,-1.0864,-1.0868,-1.0877,-1.0884,-1.0886,-1.0901,-1.091,-1.0922,-1.0936,-1.0942,-1.0947,-1.0951,-1.0943,-1.0944,-1.0942,-1.0942,-1.0933,-1.0932,-1.0948,-1.0948,-1.0948,0,-1.0807,-1.0809,-1.0824,-1.0828,-1.0835,-1.0841,-1.0847,-1.086,-1.0865,-1.0878,-1.088,-1.089,-1.0898,-1.0912,-1.0925,-1.0935,-1.0939,-1.0935,-1.0941,-1.0937,-1.0939,-1.0938,-1.0938,-1.0934,-1.0934,-1.0933,-1.0933,0,-1.0795,-1.0801,-1.0808,-1.0817,-1.0823,-1.0831,-1.084,-1.0842,-1.0857,-1.0863,-1.0872,-1.0878,-1.0891,-1.0901,-1.0913,-1.0921,-1.0929,-1.0931,-1.0932,-1.0928,-1.0922,-1.0925,-1.0939,-1.0932,-1.0932,-1.0932,-1.0932,-1.0932,-1.0785,-1.0788,-1.0798,-1.0806,-1.0814,-1.0822,-1.0826,-1.0835,-1.0843,-1.0854,-1.0861,-1.087,-1.0882,-1.0898,-1.0906,-1.0913,-1.0917,-1.0917,-1.0917,-1.0917,-1.0915,-1.0921,-1.0915,-1.0915,-1.0915,-1.0915,-1.0915,0,-1.0774,-1.0781,-1.0788,-1.0799,-1.0805,-1.0813,-1.0823,-1.0828,-1.0835,-1.0844,-1.0852,-1.0863,-1.0872,-1.0885,-1.0895,-1.0899,-1.0903,-1.0901,-1.0901,-1.0902,-1.0911,-1.091,-1.0897,-1.0897,-1.0897,-1.0897,-1.0897,-1.0897,-1.0769,-1.0774,-1.078,-1.079,-1.0797,-1.0805,-1.081,-1.0817,-1.0825,-1.0836,-1.0844,-1.0852,-1.0863,-1.0874,-1.0884,-1.0887,-1.089,-1.0887,-1.0892,-1.09,-1.0902,-1.0903,-1.0902,-1.0888,-1.0888,-1.0882,-1.0882,-1.0882]}]]